This is the latest recevied weather packets stored in our database for station/object AA8FM-13. If no packets are shown the sender has not sent any weather packets the latest 10 day(s).
| Time | Temp. | Humidity | Pressure | Rain* | Wind** | Luminosity | Snow |
|---|---|---|---|---|---|---|---|
| 1777665044 | 16.67° C | 40% | 1007.5 hPa | 0 mm | - | 224 W/m² | - |
| 1777664739 | 16.67° C | 40% | 1007.5 hPa | 0 mm | - | 256 W/m² | - |
| 1777664436 | 17.22° C | 38% | 1007.5 hPa | 0 mm | - | 256 W/m² | - |
| 1777664133 | 17.22° C | 40% | 1007.4 hPa | 0 mm | - | 565 W/m² | - |
| 1777663832 | 17.22° C | 38% | 1007.7 hPa | 0 mm | - | 644 W/m² | - |
| 1777663528 | 17.22° C | 38% | 1007.5 hPa | 0 mm | - | 589 W/m² | - |
| 1777663226 | 17.22° C | 37% | 1007.3 hPa | 0 mm | - | 273 W/m² | - |
| 1777662923 | 16.67° C | 36% | 1007.7 hPa | 0 mm | - | 572 W/m² | - |
| 1777662620 | 16.67° C | 38% | 1007.5 hPa | 0 mm | - | 709 W/m² | - |
| 1777662316 | 16.67° C | 38% | 1007.8 hPa | 0 mm | - | 262 W/m² | - |
| 1777662011 | 16.67° C | 37% | 1007.7 hPa | 0 mm | - | 164 W/m² | - |
| 1777661708 | 17.22° C | 37% | 1007.7 hPa | 0 mm | - | 200 W/m² | - |
| 1777661404 | 16.11° C | 36% | 1008 hPa | 0 mm | - | 336 W/m² | - |
| 1777661100 | 16.67° C | 37% | 1008 hPa | 0 mm | - | 200 W/m² | - |
| 1777660795 | 17.22° C | 37% | 1008 hPa | 0 mm | - | 249 W/m² | - |
| 1777660492 | 17.78° C | 40% | 1007.8 hPa | 0 mm | - | 681 W/m² | - |
| 1777660188 | 16.67° C | 41% | 1007.8 hPa | 0 mm | - | 765 W/m² | - |
| 1777659886 | 16.67° C | 39% | 1007.8 hPa | 0 mm | - | 705 W/m² | - |
| 1777659582 | 16.67° C | 38% | 1007.9 hPa | 0 mm | - | 164 W/m² | - |
| 1777659279 | 17.22° C | 38% | 1007.9 hPa | 0 mm | - | 786 W/m² | - |
| 1777658976 | 17.22° C | 39% | 1008.3 hPa | 0 mm | - | 565 W/m² | - |
| 1777658673 | 16.11° C | 39% | 1008 hPa | 0 mm | - | 590 W/m² | - |
| 1777658369 | 16.67° C | 38% | 1008.2 hPa | 0 mm | - | 616 W/m² | - |
| 1777658067 | 16.67° C | 39% | 1008.1 hPa | 0 mm | - | 669 W/m² | - |
| 1777657763 | 16.67° C | 39% | 1008 hPa | 0 mm | - | 635 W/m² | - |
* Rain latest hour (hover to see other rain measurements)
** Current wind speed in m/s (hover to see current wind gust speed)